Погода в Куракине

Россия / Республика Марий Эл     56°43′47″N   49°17′05″E
темп.,
°C
ветер,
м/с
пор.,
м/с
влажн.,
%
обл.,
%
осадки,
мм/ч
давл.,
гПа
погр.,
м
15 апреля, чт
чт1500:00+6ю33885 0.0 102332
03:00+6ююз22906 0.0 102214
06:00+6ю339335 0.0 102134
09:00+12ююз35815 0.0 1020248
12:00+16ююз35675 0.0 1019864
15:00+17ююз345723 0.2 10181267
18:00+14юз2271100 0.2 101813
21:00+9ссв6119693 0.8 1020328
16 апреля, пт
пт1600:00+7св61192100 0.0 1022475
03:00+6св61292100 0.0 1023575
06:00+5св71287100 0.0 1024555
09:00+7всв71076100 0.0 1025634
12:00+9всв686356 0.0 1026748
15:00+11всв575312 0.0 10251064
18:00+9св59566 0.0 1026362
21:00+5св512633 0.0 1027291
17 апреля, сб
сб1700:00+3св411710 0.0 1027222
03:00+1св410770 0.0 1028178
06:00+2св39730 0.0 1028259
09:00+7св57490 0.0 1029679
12:00+10св56410 0.0 10281233
15:00+11ссв56392 0.0 10271455
18:00+8ссв36565 0.0 1026163
21:00+5ссв36680 0.0 102797
18 апреля, вс
вс1800:00+3с36720 0.0 1026102
03:00+2с36770 0.0 1026112
06:00+3с38770 0.0 1026197
09:00+8с57595 0.0 1026846
12:00+8ссв7855100 0.0 10271582
15:00+6ссв694897 0.0 10291735
18:00+5св710443 0.0 1030974
21:00+1св411520 0.0 1033340
19 апреля, пн
пн1900:00−1всв410600 0.0 1035269
03:00−2всв38620 0.0 1037239
06:00−1всв47550 0.0 1038392
09:00+2всв45332 0.0 10391336
12:00+5всв44290 0.0 10391562
15:00+6всв33290 0.0 10381622
18:00+4всв22400 0.0 103815
21:00+1всв22460 0.0 103912